START_TIME,STEP,MOV.,AL01,t_acc.,AL02,t_acc.,E37,t_acc.,H21,t_acc.
1979-07-21 03:00:34.030 ,1,0,0.,24.0,1.,24.0,0.,24.0,0.,24.0
1979-07-21 03:00:58.030 ,2,1,0.,24.0,0.,24.0,0.,24.0,0.,24.0
1979-07-21 03:01:22.030 ,2,0,0.,24.0,1.,24.0,0.,24.0,0.,24.0
1979-07-21 03:01:46.030 ,3,1,1.,24.0,1.,24.0,0.,24.0,0.,24.0
1979-07-21 03:02:10.030 ,3,0,1.,24.0,0.,24.0,0.,24.0,0.,24.0
1979-07-21 03:02:34.030 ,4,1,0.,24.0,2.,24.0,0.,24.0,0.,24.0
1979-07-21 03:02:58.030 ,4,0,0.,24.0,0.,24.0,2.,24.0,0.,24.0
1979-07-21 03:03:22.030 ,5,1,0.,24.0,0.,24.0,0.,24.0,0.,24.0
1979-07-21 03:03:46.030 ,5,0,0.,24.0,0.,24.0,2.,24.0,0.,24.0
1979-07-21 03:04:10.030 ,6,1,0.,24.0,0.,24.0,0.,24.0,0.,24.0
1979-07-21 03:04:34.030 ,6,0,0.,24.0,0.,24.0,0.,24.0,0.,24.0
1979-07-21 03:04:58.030 ,7,1,11.,24.0,0.,24.0,0.,24.0,0.,24.0
1979-07-21 03:05:22.030 ,7,0,24.,24.0,0.,24.0,1.,24.0,0.,24.0
1979-07-21 03:05:46.030 ,7,1,41.,24.0,0.,24.0,1.,24.0,0.,24.0
1979-07-21 03:06:10.030 ,7,0,29.,24.0,0.,24.0,0.,24.0,0.,24.0
1979-07-21 03:06:34.030 ,6,1,29.,24.0,0.,24.0,0.,24.0,0.,24.0
1979-07-21 03:06:58.030 ,6,0,1.,24.0,0.,24.0,0.,24.0,0.,24.0
1979-07-21 03:07:22.030 ,5,1,0.,24.0,0.,24.0,0.,24.0,0.,24.0
1979-07-21 03:07:46.030 ,5,0,0.,24.0,0.,24.0,0.,24.0,0.,24.0
1979-07-21 03:08:10.030 ,4,1,0.,24.0,0.,24.0,1.,24.0,0.,24.0
1979-07-21 03:08:34.030 ,4,0,0.,24.0,0.,24.0,1.,24.0,0.,24.0
1979-07-21 03:08:58.030 ,3,1,0.,24.0,0.,24.0,1.,24.0,0.,24.0
1979-07-21 03:09:22.030 ,3,0,1.,24.0,0.,24.0,0.,24.0,0.,24.0
1979-07-21 03:09:46.030 ,2,1,0.,24.0,0.,24.0,0.,24.0,0.,24.0
1979-07-21 03:10:10.030 ,2,0,2.,24.0,0.,24.0,0.,24.0,0.,24.0
1979-07-21 03:10:34.030 ,1,1,0.,24.0,0.,24.0,0.,24.0,0.,24.0
1979-07-21 03:10:58.030 ,1,0,0.,24.0,1.,24.0,0.,24.0,0.,24.0
1979-07-21 03:11:22.030 ,0,1,0.,24.0,3.,24.0,0.,24.0,0.,24.0
1979-07-21 03:11:46.030 ,0,0,0.,24.0,0.,24.0,1.,24.0,0.,24.0
1979-07-21 03:12:10.030 ,0,1,0.,24.0,0.,24.0,0.,24.0,0.,24.0
1979-07-21 03:12:34.030 ,0,0,0.,24.0,0.,24.0,0.,24.0,0.,24.0
1979-07-21 03:12:58.030 ,1,1,0.,24.0,0.,24.0,0.,24.0,0.,24.0
1979-07-21 03:13:22.030 ,1,0,1.,24.0,0.,24.0,0.,24.0,0.,24.0
1979-07-21 03:13:46.030 ,2,1,0.,24.0,1.,24.0,1.,24.0,0.,24.0
1979-07-21 03:14:10.030 ,2,0,0.,24.0,1.,24.0,0.,24.0,0.,24.0
1979-07-21 03:14:34.030 ,3,1,0.,24.0,0.,24.0,0.,24.0,0.,24.0
1979-07-21 03:14:58.030 ,3,0,0.,24.0,0.,24.0,1.,24.0,0.,24.0
1979-07-21 03:15:22.030 ,4,1,0.,24.0,1.,24.0,1.,24.0,0.,24.0
1979-07-21 03:15:46.030 ,4,0,1.,24.0,0.,24.0,0.,24.0,0.,24.0
1979-07-21 03:16:10.030 ,5,1,1.,24.0,0.,24.0,0.,24.0,0.,24.0
1979-07-21 03:16:34.030 ,5,0,0.,24.0,0.,24.0,2.,24.0,0.,24.0
1979-07-21 03:16:58.030 ,6,1,0.,24.0,0.,24.0,1.,24.0,0.,24.0
1979-07-21 03:17:22.030 ,6,0,0.,24.0,0.,24.0,2.,24.0,0.,24.0
1979-07-21 03:17:46.030 ,7,1,8.,24.0,0.,24.0,1.,24.0,0.,24.0
1979-07-21 03:18:10.030 ,7,0,30.,24.0,0.,24.0,0.,24.0,0.,24.0
1979-07-21 03:18:34.030 ,7,1,26.,24.0,0.,24.0,0.,24.0,0.,24.0
1979-07-21 03:18:58.030 ,7,0,37.,24.0,0.,24.0,0.,24.0,0.,24.0
1979-07-21 03:19:22.030 ,6,1,15.,24.0,0.,24.0,0.,24.0,0.,24.0
1979-07-21 03:19:46.030 ,6,0,0.,24.0,0.,24.0,0.,24.0,0.,24.0
1979-07-21 03:20:10.030 ,5,1,1.,24.0,0.,24.0,0.,24.0,0.,24.0
1979-07-21 03:20:34.030 ,5,0,0.,24.0,0.,24.0,1.,24.0,0.,24.0
1979-07-21 03:20:58.030 ,4,1,0.,24.0,0.,24.0,0.,24.0,0.,24.0
1979-07-21 03:21:22.030 ,4,0,0.,24.0,1.,24.0,1.,24.0,0.,24.0
1979-07-21 03:21:46.030 ,3,1,0.,24.0,0.,24.0,1.,24.0,0.,24.0
1979-07-21 03:22:10.030 ,3,0,0.,24.0,0.,24.0,0.,24.0,0.,24.0
1979-07-21 03:22:34.030 ,2,1,1.,24.0,0.,24.0,0.,24.0,0.,24.0
1979-07-21 03:22:58.030 ,2,0,0.,24.0,0.,24.0,0.,24.0,0.,24.0
1979-07-21 03:23:22.030 ,1,1,0.,24.0,0.,24.0,0.,24.0,0.,24.0
1979-07-21 03:23:46.030 ,1,0,0.,24.0,0.,24.0,0.,24.0,0.,24.0
1979-07-21 03:24:10.030 ,0,1,0.,24.0,0.,24.0,0.,24.0,0.,24.0
1979-07-21 03:24:34.030 ,0,0,0.,24.0,0.,24.0,0.,24.0,0.,24.0
1979-07-21 03:24:58.030 ,0,1,0.,24.0,0.,24.0,0.,24.0,0.,24.0
1979-07-21 03:25:22.030 ,0,0,0.,24.0,0.,24.0,0.,24.0,0.,24.0
1979-07-21 03:25:46.030 ,1,1,0.,24.0,0.,24.0,2.,24.0,0.,24.0
1979-07-21 03:26:10.030 ,1,0,1.,24.0,0.,24.0,0.,24.0,0.,24.0
1979-07-21 03:26:34.030 ,2,1,1.,24.0,0.,24.0,0.,24.0,0.,24.0
1979-07-21 03:26:58.030 ,2,0,0.,24.0,0.,24.0,1.,24.0,0.,24.0
1979-07-21 03:27:22.030 ,3,1,0.,24.0,0.,24.0,0.,24.0,0.,24.0
1979-07-21 03:27:46.030 ,3,0,1.,24.0,0.,24.0,0.,24.0,0.,24.0
1979-07-21 03:28:10.030 ,4,1,0.,24.0,0.,24.0,1.,24.0,0.,24.0
1979-07-21 03:28:34.030 ,4,0,0.,24.0,0.,24.0,0.,24.0,0.,24.0
1979-07-21 03:28:58.030 ,5,1,1.,24.0,0.,24.0,1.,24.0,0.,24.0
1979-07-21 03:29:22.030 ,5,0,2.,24.0,0.,24.0,0.,24.0,0.,24.0
1979-07-21 03:29:46.030 ,6,1,0.,24.0,0.,24.0,0.,24.0,0.,24.0
1979-07-21 03:30:10.030 ,6,0,2.,24.0,0.,24.0,0.,24.0,0.,24.0
1979-07-21 03:30:34.030 ,7,0,12.,24.0,0.,24.0,1.,24.0,0.,24.0
1979-07-21 03:30:58.030 ,7,0,29.,24.0,0.,24.0,0.,24.0,0.,24.0
1979-07-21 03:31:22.030 ,5,1,12.,24.0,0.,24.0,0.,24.0,0.,24.0
1979-07-21 03:31:46.030 ,1,1,0.,24.0,0.,24.0,0.,24.0,0.,24.0
1979-07-21 03:32:10.030 ,2,1,0.,24.0,0.,24.0,0.,24.0,0.,24.0
1979-07-21 03:32:34.030 ,6,1,0.,24.0,0.,24.0,0.,24.0,0.,24.0
1979-07-21 03:32:58.030 ,5,1,14.,24.0,0.,24.0,0.,24.0,0.,24.0
1979-07-21 03:33:22.030 ,1,1,0.,24.0,0.,24.0,0.,24.0,0.,24.0
1979-07-21 03:33:46.030 ,2,1,1.,24.0,0.,24.0,0.,24.0,0.,24.0
1979-07-21 03:34:10.030 ,6,1,1.,24.0,0.,24.0,0.,24.0,0.,24.0
1979-07-21 03:34:34.030 ,5,1,20.,24.0,0.,24.0,1.,24.0,0.,24.0
1979-07-21 03:34:58.030 ,1,1,0.,24.0,0.,24.0,1.,24.0,0.,24.0
1979-07-21 03:35:22.030 ,2,1,0.,24.0,0.,24.0,1.,24.0,0.,24.0
1979-07-21 03:35:46.030 ,6,1,0.,24.0,0.,24.0,0.,24.0,0.,24.0
1979-07-21 03:36:10.030 ,5,1,7.,24.0,0.,24.0,0.,24.0,0.,24.0
1979-07-21 03:36:34.030 ,1,1,1.,24.0,0.,24.0,1.,24.0,0.,24.0
1979-07-21 03:36:58.030 ,2,1,0.,24.0,1.,24.0,0.,24.0,0.,24.0
1979-07-21 03:37:22.030 ,6,1,1.,24.0,0.,24.0,1.,24.0,0.,24.0
1979-07-21 03:37:46.030 ,5,1,13.,24.0,0.,24.0,1.,24.0,0.,24.0
1979-07-21 03:38:10.030 ,1,1,0.,24.0,0.,24.0,0.,24.0,0.,24.0
1979-07-21 03:38:34.030 ,2,1,0.,24.0,0.,24.0,0.,24.0,0.,24.0
1979-07-21 03:38:58.030 ,6,1,0.,24.0,1.,24.0,0.,24.0,0.,24.0
1979-07-21 03:39:22.030 ,5,1,13.,24.0,0.,24.0,0.,24.0,0.,24.0
1979-07-21 03:39:46.030 ,1,1,1.,24.0,0.,24.0,0.,24.0,0.,24.0
1979-07-21 03:40:10.030 ,2,1,0.,24.0,0.,24.0,1.,24.0,0.,24.0
1979-07-21 03:40:34.030 ,6,1,0.,24.0,0.,24.0,0.,24.0,0.,24.0
1979-07-21 03:40:58.030 ,5,1,17.,24.0,0.,24.0,1.,24.0,0.,24.0
1979-07-21 03:41:22.030 ,1,1,0.,24.0,0.,24.0,2.,24.0,0.,24.0
1979-07-21 03:41:46.030 ,0,0,0.,24.0,0.,24.0,0.,24.0,0.,24.0
1979-07-21 03:42:10.030 ,0,0,0.,24.0,0.,24.0,0.,24.0,0.,24.0
1979-07-21 03:42:34.030 ,0,0,18.,24.0,0.,24.0,1.,24.0,0.,24.0
1979-07-21 03:42:58.030 ,0,0,0.,24.0,0.,24.0,0.,24.0,0.,24.0
1979-07-21 03:43:22.030 ,4,1,0.,24.0,0.,24.0,1.,24.0,0.,24.0
1979-07-21 03:43:46.030 ,4,0,0.,24.0,0.,24.0,0.,24.0,0.,24.0
1979-07-21 03:44:10.030 ,3,1,0.,24.0,1.,24.0,2.,24.0,0.,24.0
1979-07-21 03:44:34.030 ,3,0,0.,24.0,0.,24.0,0.,24.0,0.,24.0
1979-07-21 03:44:58.030 ,2,1,0.,24.0,0.,24.0,0.,24.0,0.,24.0
1979-07-21 03:45:22.030 ,2,0,0.,24.0,0.,24.0,0.,24.0,0.,24.0
1979-07-21 03:45:46.030 ,1,1,0.,24.0,0.,24.0,0.,24.0,0.,24.0
1979-07-21 03:46:10.030 ,1,0,1.,24.0,0.,24.0,0.,24.0,0.,24.0
1979-07-21 03:46:34.030 ,0,1,0.,24.0,0.,24.0,0.,24.0,0.,24.0
1979-07-21 03:46:58.030 ,0,0,0.,24.0,0.,24.0,1.,24.0,0.,24.0
1979-07-21 03:47:22.030 ,0,1,0.,24.0,0.,24.0,1.,24.0,0.,24.0
1979-07-21 03:47:46.030 ,0,0,0.,24.0,0.,24.0,0.,24.0,0.,24.0
1979-07-21 03:48:10.030 ,1,1,0.,24.0,1.,24.0,0.,24.0,0.,24.0
1979-07-21 03:48:34.030 ,1,0,0.,24.0,0.,24.0,0.,24.0,0.,24.0
1979-07-21 03:48:58.030 ,2,1,0.,24.0,0.,24.0,0.,24.0,0.,24.0
1979-07-21 03:49:22.030 ,2,0,0.,24.0,0.,24.0,0.,24.0,0.,24.0
1979-07-21 03:49:46.030 ,3,1,0.,24.0,0.,24.0,0.,24.0,0.,24.0
1979-07-21 03:50:10.030 ,3,0,1.,24.0,0.,24.0,0.,24.0,0.,24.0
1979-07-21 03:50:34.030 ,4,1,0.,24.0,0.,24.0,1.,24.0,0.,24.0
1979-07-21 03:50:58.030 ,4,0,0.,24.0,0.,24.0,0.,24.0,0.,24.0
1979-07-21 03:51:22.030 ,5,1,0.,24.0,0.,24.0,1.,24.0,0.,24.0
1979-07-21 03:51:46.030 ,5,0,0.,24.0,0.,24.0,0.,24.0,0.,24.0
1979-07-21 03:52:10.030 ,6,1,0.,24.0,0.,24.0,0.,24.0,0.,24.0
1979-07-21 03:52:34.030 ,6,0,1.,24.0,1.,24.0,1.,24.0,0.,24.0
1979-07-21 03:52:58.030 ,7,1,4.,24.0,0.,24.0,0.,24.0,0.,24.0
1979-07-21 03:53:22.030 ,7,0,38.,24.0,0.,24.0,1.,24.0,0.,24.0
1979-07-21 03:53:46.030 ,7,1,25.,24.0,0.,24.0,0.,24.0,0.,24.0
1979-07-21 03:54:10.030 ,7,0,46.,24.0,0.,24.0,0.,24.0,0.,24.0
1979-07-21 03:54:34.030 ,6,1,16.,24.0,0.,24.0,0.,24.0,0.,24.0
1979-07-21 03:54:58.030 ,6,0,0.,24.0,0.,24.0,1.,24.0,0.,24.0
1979-07-21 03:55:22.030 ,5,1,1.,24.0,0.,24.0,0.,24.0,0.,24.0
1979-07-21 03:55:46.030 ,5,0,0.,24.0,0.,24.0,0.,24.0,0.,24.0
1979-07-21 03:56:10.030 ,4,1,0.,24.0,0.,24.0,1.,24.0,0.,24.0
1979-07-21 03:56:34.030 ,4,0,0.,24.0,0.,24.0,0.,24.0,0.,24.0
1979-07-21 03:56:58.030 ,3,1,0.,24.0,0.,24.0,1.,24.0,0.,24.0
1979-07-21 03:57:22.030 ,3,0,0.,24.0,0.,24.0,1.,24.0,0.,24.0
1979-07-21 03:57:46.030 ,2,1,0.,24.0,0.,24.0,0.,24.0,0.,24.0
1979-07-21 03:58:10.030 ,2,0,0.,24.0,0.,24.0,0.,24.0,0.,24.0
1979-07-21 03:58:34.030 ,1,1,0.,24.0,0.,24.0,0.,24.0,0.,24.0
1979-07-21 03:58:58.030 ,1,0,0.,24.0,1.,24.0,0.,24.0,0.,24.0
1979-07-21 03:59:22.030 ,0,1,0.,24.0,0.,24.0,0.,24.0,0.,24.0
1979-07-21 03:59:46.030 ,0,0,1.,24.0,0.,24.0,1.,24.0,0.,24.0
1979-07-21 04:00:10.030 ,0,1,2.,24.0,2.,24.0,0.,24.0,0.,24.0
1979-07-21 04:00:34.030 ,0,0,1.,24.0,0.,24.0,0.,24.0,0.,24.0
1979-07-21 04:00:58.030 ,1,1,0.,24.0,0.,24.0,1.,24.0,0.,24.0
1979-07-21 04:01:22.030 ,1,0,1.,24.0,0.,24.0,0.,24.0,0.,24.0
1979-07-21 04:01:46.030 ,2,1,1.,24.0,0.,24.0,0.,24.0,0.,24.0
1979-07-21 04:02:10.030 ,2,0,0.,24.0,0.,24.0,2.,24.0,0.,24.0
1979-07-21 04:02:34.030 ,3,1,2.,24.0,0.,24.0,1.,24.0,0.,24.0
1979-07-21 04:02:58.030 ,3,0,0.,24.0,0.,24.0,0.,24.0,0.,24.0
1979-07-21 04:03:22.030 ,4,1,0.,24.0,0.,24.0,1.,24.0,0.,24.0
1979-07-21 04:03:46.030 ,4,0,1.,24.0,0.,24.0,2.,24.0,0.,24.0
1979-07-21 04:04:10.030 ,5,1,0.,24.0,0.,24.0,1.,24.0,0.,24.0
1979-07-21 04:04:34.030 ,5,0,0.,24.0,0.,24.0,0.,24.0,0.,24.0
1979-07-21 04:04:58.030 ,6,1,0.,24.0,1.,24.0,0.,24.0,0.,24.0
1979-07-21 04:05:22.030 ,6,0,0.,24.0,0.,24.0,1.,24.0,0.,24.0
1979-07-21 04:05:46.030 ,7,1,10.,24.0,0.,24.0,0.,24.0,0.,24.0
1979-07-21 04:06:10.030 ,7,0,28.,24.0,0.,24.0,0.,24.0,0.,24.0
1979-07-21 04:06:34.030 ,7,1,34.,24.0,0.,24.0,1.,24.0,0.,24.0
1979-07-21 04:06:58.030 ,7,0,35.,24.0,0.,24.0,0.,24.0,0.,24.0
1979-07-21 04:07:22.030 ,6,1,25.,24.0,0.,24.0,0.,24.0,0.,24.0
1979-07-21 04:07:46.030 ,6,0,0.,24.0,0.,24.0,0.,24.0,0.,24.0
1979-07-21 04:08:10.030 ,5,1,0.,24.0,0.,24.0,0.,24.0,0.,24.0
1979-07-21 04:08:34.030 ,5,0,0.,24.0,0.,24.0,0.,24.0,0.,24.0
1979-07-21 04:08:58.030 ,4,1,0.,24.0,0.,24.0,0.,24.0,0.,24.0
1979-07-21 04:09:22.030 ,4,0,0.,24.0,0.,24.0,1.,24.0,0.,24.0
1979-07-21 04:09:46.030 ,3,1,1.,24.0,0.,24.0,0.,24.0,0.,24.0
1979-07-21 04:10:10.030 ,3,0,0.,24.0,0.,24.0,0.,24.0,0.,24.0
1979-07-21 04:10:34.030 ,2,1,0.,24.0,0.,24.0,1.,24.0,0.,24.0
1979-07-21 04:10:58.030 ,2,0,0.,24.0,0.,24.0,1.,24.0,0.,24.0
1979-07-21 04:11:22.030 ,1,1,1.,24.0,0.,24.0,1.,24.0,0.,24.0
1979-07-21 04:11:46.030 ,1,0,0.,24.0,0.,24.0,0.,24.0,0.,24.0
1979-07-21 04:12:10.030 ,0,1,0.,24.0,0.,24.0,0.,24.0,0.,24.0
1979-07-21 04:12:34.030 ,0,0,0.,24.0,0.,24.0,0.,24.0,0.,24.0
1979-07-21 04:12:58.030 ,0,1,0.,24.0,0.,24.0,0.,24.0,0.,24.0
1979-07-21 04:13:22.030 ,0,0,0.,24.0,0.,24.0,1.,24.0,0.,24.0
1979-07-21 04:13:46.030 ,1,1,1.,24.0,0.,24.0,1.,24.0,0.,24.0
1979-07-21 04:14:10.030 ,1,0,1.,24.0,0.,24.0,0.,24.0,0.,24.0
1979-07-21 04:14:34.030 ,2,1,2.,24.0,0.,24.0,0.,24.0,0.,24.0
1979-07-21 04:14:58.030 ,2,0,0.,24.0,0.,24.0,0.,24.0,0.,24.0
1979-07-21 04:15:22.030 ,3,1,0.,24.0,0.,24.0,0.,24.0,0.,24.0
1979-07-21 04:15:46.030 ,3,0,0.,24.0,0.,24.0,0.,24.0,0.,24.0
1979-07-21 04:16:10.030 ,4,1,1.,24.0,0.,24.0,0.,24.0,0.,24.0
1979-07-21 04:16:34.030 ,4,0,0.,24.0,0.,24.0,0.,24.0,0.,24.0
1979-07-21 04:16:58.020 ,5,1,0.,24.0,2.,24.0,0.,24.0,0.,24.0
1979-07-21 04:17:22.030 ,5,0,0.,24.0,0.,24.0,0.,24.0,0.,24.0
1979-07-21 04:17:46.030 ,6,1,0.,24.0,0.,24.0,0.,24.0,0.,24.0
1979-07-21 04:18:10.030 ,6,0,0.,24.0,0.,24.0,0.,24.0,0.,24.0
1979-07-21 04:18:34.030 ,7,0,5.,24.0,0.,24.0,2.,24.0,0.,24.0
1979-07-21 04:18:58.030 ,7,0,29.,24.0,0.,24.0,2.,24.0,0.,24.0
1979-07-21 04:19:22.030 ,5,1,16.,24.0,0.,24.0,0.,24.0,0.,24.0
1979-07-21 04:19:46.030 ,1,1,0.,24.0,0.,24.0,0.,24.0,0.,24.0
1979-07-21 04:20:10.030 ,2,1,2.,24.0,0.,24.0,1.,24.0,0.,24.0
1979-07-21 04:20:34.030 ,6,1,0.,24.0,0.,24.0,0.,24.0,0.,24.0
1979-07-21 04:20:58.030 ,5,1,12.,24.0,0.,24.0,0.,24.0,0.,24.0
1979-07-21 04:21:22.030 ,1,1,0.,24.0,0.,24.0,1.,24.0,0.,24.0
1979-07-21 04:21:46.030 ,2,1,0.,24.0,0.,24.0,2.,24.0,0.,24.0
1979-07-21 04:22:10.030 ,6,1,0.,24.0,0.,24.0,0.,24.0,0.,24.0
1979-07-21 04:22:34.030 ,5,1,17.,24.0,0.,24.0,1.,24.0,0.,24.0
1979-07-21 04:22:58.030 ,1,1,0.,24.0,0.,24.0,1.,24.0,0.,24.0
1979-07-21 04:23:22.030 ,2,1,0.,24.0,1.,24.0,0.,24.0,0.,24.0
1979-07-21 04:23:46.030 ,6,1,0.,24.0,0.,24.0,1.,24.0,0.,24.0
1979-07-21 04:24:10.030 ,5,1,12.,24.0,0.,24.0,2.,24.0,0.,24.0
1979-07-21 04:24:34.030 ,1,1,0.,24.0,0.,24.0,0.,24.0,0.,24.0
1979-07-21 04:24:58.030 ,2,1,2.,24.0,0.,24.0,0.,24.0,0.,24.0
1979-07-21 04:25:22.030 ,6,1,1.,24.0,1.,24.0,1.,24.0,0.,24.0
1979-07-21 04:25:46.030 ,5,1,19.,24.0,0.,24.0,0.,24.0,0.,24.0
1979-07-21 04:26:10.030 ,1,1,0.,24.0,2.,24.0,1.,24.0,0.,24.0
1979-07-21 04:26:34.030 ,2,1,1.,24.0,0.,24.0,0.,24.0,0.,24.0
1979-07-21 04:26:58.030 ,6,1,0.,24.0,0.,24.0,0.,24.0,0.,24.0
1979-07-21 04:27:22.030 ,5,1,9.,24.0,0.,24.0,0.,24.0,0.,24.0
1979-07-21 04:27:46.030 ,1,1,0.,24.0,0.,24.0,2.,24.0,0.,24.0
1979-07-21 04:28:10.030 ,2,1,0.,24.0,0.,24.0,0.,24.0,0.,24.0
1979-07-21 04:28:34.030 ,6,1,1.,24.0,0.,24.0,0.,24.0,0.,24.0
1979-07-21 04:28:58.030 ,5,1,18.,24.0,0.,24.0,0.,24.0,0.,24.0
1979-07-21 04:29:22.030 ,1,1,0.,24.0,0.,24.0,0.,24.0,0.,24.0
1979-07-21 04:29:46.030 ,0,0,0.,24.0,0.,24.0,0.,24.0,0.,24.0
1979-07-21 04:30:10.030 ,0,0,0.,24.0,0.,24.0,0.,24.0,0.,24.0
1979-07-21 04:30:34.030 ,5,1,14.,24.0,0.,24.0,0.,24.0,0.,24.0
1979-07-21 04:30:58.030 ,5,0,0.,24.0,0.,24.0,1.,24.0,0.,24.0
1979-07-21 04:31:22.030 ,4,1,1.,24.0,0.,24.0,0.,24.0,0.,24.0
1979-07-21 04:31:46.030 ,4,0,0.,24.0,0.,24.0,0.,24.0,0.,24.0
1979-07-21 04:32:10.030 ,3,1,0.,24.0,0.,24.0,0.,24.0,0.,24.0
1979-07-21 04:32:34.030 ,3,0,1.,24.0,1.,24.0,0.,24.0,0.,24.0
1979-07-21 04:32:58.030 ,2,1,0.,24.0,0.,24.0,1.,24.0,0.,24.0
1979-07-21 04:33:22.030 ,2,0,0.,24.0,0.,24.0,0.,24.0,0.,24.0
1979-07-21 04:33:46.030 ,1,1,0.,24.0,0.,24.0,1.,24.0,0.,24.0
1979-07-21 04:34:10.020 ,1,0,0.,24.0,0.,24.0,1.,24.0,0.,24.0
1979-07-21 04:34:34.030 ,0,1,0.,24.0,0.,24.0,1.,24.0,0.,24.0
1979-07-21 04:34:58.030 ,0,0,1.,24.0,0.,24.0,1.,24.0,0.,24.0
1979-07-21 04:35:22.030 ,0,1,0.,24.0,0.,24.0,1.,24.0,0.,24.0
1979-07-21 04:35:46.030 ,0,0,1.,24.0,0.,24.0,1.,24.0,0.,24.0
1979-07-21 04:36:10.030 ,1,1,0.,24.0,0.,24.0,0.,24.0,0.,24.0
1979-07-21 04:36:34.030 ,1,0,1.,24.0,0.,24.0,0.,24.0,0.,24.0
1979-07-21 04:36:58.020 ,2,1,0.,24.0,0.,24.0,1.,24.0,0.,24.0
1979-07-21 04:37:22.020 ,2,0,0.,24.0,0.,24.0,1.,24.0,0.,24.0
1979-07-21 04:37:46.020 ,3,1,0.,24.0,0.,24.0,1.,24.0,0.,24.0
1979-07-21 04:38:10.020 ,3,0,0.,24.0,0.,24.0,0.,24.0,0.,24.0
1979-07-21 04:38:34.020 ,4,1,0.,24.0,2.,24.0,0.,24.0,0.,24.0
1979-07-21 04:38:58.020 ,4,0,0.,24.0,0.,24.0,1.,24.0,0.,24.0
1979-07-21 04:39:22.020 ,5,1,0.,24.0,0.,24.0,0.,24.0,0.,24.0
1979-07-21 04:39:46.020 ,5,0,1.,24.0,0.,24.0,0.,24.0,0.,24.0
1979-07-21 04:40:10.020 ,6,1,1.,24.0,0.,24.0,1.,24.0,0.,24.0
1979-07-21 04:40:34.020 ,6,0,0.,24.0,0.,24.0,1.,24.0,0.,24.0
1979-07-21 04:40:58.020 ,7,1,4.,24.0,0.,24.0,0.,24.0,0.,24.0
1979-07-21 04:41:22.020 ,7,0,33.,24.0,0.,24.0,0.,24.0,0.,24.0
1979-07-21 04:41:46.020 ,7,1,36.,24.0,0.,24.0,2.,24.0,0.,24.0
1979-07-21 04:42:10.020 ,7,0,33.,24.0,0.,24.0,1.,24.0,0.,24.0
1979-07-21 04:42:34.020 ,6,1,17.,24.0,0.,24.0,0.,24.0,0.,24.0
1979-07-21 04:42:58.020 ,6,0,0.,24.0,0.,24.0,0.,24.0,0.,24.0
1979-07-21 04:43:22.020 ,5,1,0.,24.0,0.,24.0,0.,24.0,0.,24.0
1979-07-21 04:43:46.020 ,5,0,1.,24.0,0.,24.0,0.,24.0,0.,24.0
1979-07-21 04:44:10.020 ,4,1,0.,24.0,0.,24.0,0.,24.0,0.,24.0
1979-07-21 04:44:34.020 ,4,0,0.,24.0,0.,24.0,0.,24.0,0.,24.0
1979-07-21 04:44:58.020 ,3,1,0.,24.0,0.,24.0,0.,24.0,0.,24.0
1979-07-21 04:45:22.020 ,3,0,0.,24.0,0.,24.0,2.,24.0,0.,24.0
1979-07-21 04:45:46.020 ,2,1,0.,24.0,0.,24.0,0.,24.0,0.,24.0
1979-07-21 04:46:10.020 ,2,0,0.,24.0,0.,24.0,0.,24.0,0.,24.0
1979-07-21 04:46:34.020 ,1,1,0.,24.0,0.,24.0,0.,24.0,0.,24.0
1979-07-21 04:46:58.020 ,1,0,0.,24.0,0.,24.0,0.,24.0,0.,24.0
1979-07-21 04:47:22.020 ,0,1,1.,24.0,0.,24.0,0.,24.0,0.,24.0
1979-07-21 04:47:46.020 ,0,0,0.,24.0,0.,24.0,0.,24.0,0.,24.0
1979-07-21 04:48:10.020 ,0,1,0.,24.0,0.,24.0,1.,24.0,0.,24.0
1979-07-21 04:48:34.020 ,0,0,0.,24.0,0.,24.0,0.,24.0,0.,24.0
1979-07-21 04:48:58.020 ,1,1,1.,24.0,0.,24.0,0.,24.0,0.,24.0
1979-07-21 04:49:22.020 ,1,0,1.,24.0,0.,24.0,1.,24.0,0.,24.0
1979-07-21 04:49:46.020 ,2,1,1.,24.0,0.,24.0,1.,24.0,0.,24.0
1979-07-21 04:50:10.020 ,2,0,0.,24.0,0.,24.0,1.,24.0,0.,24.0
1979-07-21 04:50:34.020 ,3,1,0.,24.0,1.,24.0,0.,24.0,0.,24.0
1979-07-21 04:50:58.020 ,3,0,1.,24.0,0.,24.0,0.,24.0,0.,24.0
1979-07-21 04:51:22.020 ,4,1,0.,24.0,0.,24.0,1.,24.0,0.,24.0
1979-07-21 04:51:46.020 ,4,0,2.,24.0,0.,24.0,0.,24.0,0.,24.0
1979-07-21 04:52:10.020 ,5,1,0.,24.0,0.,24.0,0.,24.0,0.,24.0
1979-07-21 04:52:34.020 ,5,0,0.,24.0,0.,24.0,0.,24.0,0.,24.0
1979-07-21 04:52:58.020 ,6,1,0.,24.0,0.,24.0,0.,24.0,0.,24.0
1979-07-21 04:53:22.020 ,6,0,0.,24.0,0.,24.0,0.,24.0,0.,24.0
1979-07-21 04:53:46.020 ,7,1,9.,24.0,0.,24.0,0.,24.0,0.,24.0
1979-07-21 04:54:10.020 ,7,0,23.,24.0,0.,24.0,0.,24.0,0.,24.0
1979-07-21 04:54:34.020 ,7,1,44.,24.0,0.,24.0,0.,24.0,0.,24.0
1979-07-21 04:54:58.020 ,7,0,27.,24.0,0.,24.0,0.,24.0,0.,24.0
1979-07-21 04:55:22.020 ,6,1,22.,24.0,0.,24.0,0.,24.0,0.,24.0
1979-07-21 04:55:46.020 ,6,0,1.,24.0,0.,24.0,0.,24.0,0.,24.0
1979-07-21 04:56:10.020 ,5,1,0.,24.0,0.,24.0,0.,24.0,0.,24.0
1979-07-21 04:56:34.020 ,5,0,0.,24.0,1.,24.0,0.,24.0,0.,24.0
1979-07-21 04:56:58.020 ,4,1,1.,24.0,0.,24.0,0.,24.0,0.,24.0
1979-07-21 04:57:22.020 ,4,0,0.,24.0,0.,24.0,0.,24.0,0.,24.0
1979-07-21 04:57:46.020 ,3,1,0.,24.0,0.,24.0,2.,24.0,0.,24.0
1979-07-21 04:58:10.020 ,3,0,0.,24.0,0.,24.0,0.,24.0,0.,24.0
1979-07-21 04:58:34.020 ,2,1,0.,24.0,0.,24.0,0.,24.0,0.,24.0
1979-07-21 04:58:58.020 ,2,0,1.,24.0,0.,24.0,0.,24.0,0.,24.0
1979-07-21 04:59:22.020 ,1,1,0.,24.0,0.,24.0,1.,24.0,0.,24.0
1979-07-21 04:59:46.020 ,1,0,1.,24.0,0.,24.0,1.,24.0,0.,24.0
1979-07-21 05:00:10.020 ,0,1,2.,24.0,0.,24.0,0.,24.0,0.,24.0
1979-07-21 05:00:34.020 ,0,0,0.,24.0,0.,24.0,0.,24.0,0.,24.0
1979-07-21 05:00:58.020 ,0,1,1.,24.0,0.,24.0,0.,24.0,0.,24.0
1979-07-21 05:01:22.020 ,0,0,0.,24.0,0.,24.0,1.,24.0,0.,24.0
1979-07-21 05:01:46.020 ,1,1,0.,24.0,0.,24.0,0.,24.0,0.,24.0
1979-07-21 05:02:10.020 ,1,0,3.,24.0,0.,24.0,1.,24.0,0.,24.0
1979-07-21 05:02:34.020 ,2,1,0.,24.0,1.,24.0,1.,24.0,0.,24.0
1979-07-21 05:02:58.020 ,2,0,0.,24.0,0.,24.0,2.,24.0,0.,24.0
1979-07-21 05:03:22.020 ,3,1,0.,24.0,0.,24.0,1.,24.0,0.,24.0
1979-07-21 05:03:46.020 ,3,0,0.,24.0,0.,24.0,0.,24.0,0.,24.0
1979-07-21 05:04:10.020 ,4,1,0.,24.0,0.,24.0,1.,24.0,0.,24.0
1979-07-21 05:04:34.020 ,4,0,1.,24.0,0.,24.0,0.,24.0,0.,24.0
1979-07-21 05:04:58.020 ,5,1,0.,24.0,0.,24.0,0.,24.0,0.,24.0
1979-07-21 05:05:22.020 ,5,0,1.,24.0,0.,24.0,1.,24.0,0.,24.0
1979-07-21 05:05:46.020 ,6,1,1.,24.0,0.,24.0,0.,24.0,0.,24.0
1979-07-21 05:06:10.020 ,6,0,1.,24.0,0.,24.0,0.,24.0,0.,24.0
1979-07-21 05:06:34.020 ,7,0,5.,24.0,0.,24.0,0.,24.0,0.,24.0
1979-07-21 05:06:58.020 ,7,0,34.,24.0,0.,24.0,0.,24.0,0.,24.0
1979-07-21 05:07:22.020 ,5,1,20.,24.0,0.,24.0,1.,24.0,0.,24.0
1979-07-21 05:07:46.020 ,1,1,0.,24.0,0.,24.0,0.,24.0,0.,24.0
1979-07-21 05:08:10.020 ,2,1,0.,24.0,0.,24.0,0.,24.0,0.,24.0
1979-07-21 05:08:34.020 ,6,1,0.,24.0,0.,24.0,0.,24.0,0.,24.0
1979-07-21 05:08:58.020 ,5,1,10.,24.0,0.,24.0,1.,24.0,0.,24.0
1979-07-21 05:09:22.020 ,1,1,1.,24.0,0.,24.0,0.,24.0,0.,24.0
1979-07-21 05:09:46.020 ,2,1,0.,24.0,0.,24.0,0.,24.0,0.,24.0
1979-07-21 05:10:10.020 ,6,1,0.,24.0,0.,24.0,0.,24.0,0.,24.0
1979-07-21 05:10:34.020 ,5,1,13.,24.0,0.,24.0,0.,24.0,0.,24.0
1979-07-21 05:10:58.020 ,1,1,0.,24.0,0.,24.0,0.,24.0,0.,24.0
1979-07-21 05:11:22.020 ,2,1,0.,24.0,0.,24.0,0.,24.0,0.,24.0
1979-07-21 05:11:46.020 ,6,1,0.,24.0,0.,24.0,0.,24.0,0.,24.0
1979-07-21 05:12:10.020 ,5,1,14.,24.0,0.,24.0,0.,24.0,0.,24.0
1979-07-21 05:12:34.020 ,1,1,0.,24.0,0.,24.0,0.,24.0,0.,24.0
1979-07-21 05:12:58.020 ,2,1,0.,24.0,0.,24.0,0.,24.0,0.,24.0
1979-07-21 05:13:22.020 ,6,1,0.,24.0,0.,24.0,0.,24.0,0.,24.0
1979-07-21 05:13:46.020 ,5,1,12.,24.0,0.,24.0,0.,24.0,0.,24.0
1979-07-21 05:14:10.020 ,1,1,0.,24.0,0.,24.0,1.,24.0,0.,24.0
1979-07-21 05:14:34.020 ,2,1,0.,24.0,1.,24.0,0.,24.0,0.,24.0
1979-07-21 05:14:58.020 ,6,1,0.,24.0,0.,24.0,0.,24.0,0.,24.0
1979-07-21 05:15:22.020 ,5,1,19.,24.0,0.,24.0,0.,24.0,0.,24.0
1979-07-21 05:15:46.020 ,1,1,0.,24.0,0.,24.0,1.,24.0,0.,24.0
1979-07-21 05:16:10.020 ,2,1,0.,24.0,0.,24.0,0.,24.0,0.,24.0
1979-07-21 05:16:34.020 ,6,1,0.,24.0,0.,24.0,1.,24.0,0.,24.0
1979-07-21 05:16:58.020 ,5,1,17.,24.0,0.,24.0,0.,24.0,0.,24.0
1979-07-21 05:17:22.020 ,1,1,0.,24.0,1.,24.0,0.,24.0,0.,24.0
1979-07-21 05:17:46.020 ,0,0,0.,24.0,0.,24.0,1.,24.0,0.,24.0
1979-07-21 05:18:10.020 ,0,0,1.,24.0,0.,24.0,0.,24.0,0.,24.0
1979-07-21 05:18:34.020 ,5,1,13.,24.0,0.,24.0,0.,24.0,0.,24.0
1979-07-21 05:18:58.020 ,5,0,0.,24.0,0.,24.0,0.,24.0,0.,24.0
1979-07-21 05:19:22.020 ,4,1,0.,24.0,0.,24.0,1.,24.0,0.,24.0
1979-07-21 05:19:46.020 ,4,0,0.,24.0,0.,24.0,0.,24.0,0.,24.0
1979-07-21 05:20:10.020 ,3,1,0.,24.0,0.,24.0,0.,24.0,0.,24.0
1979-07-21 05:20:34.020 ,3,0,0.,24.0,0.,24.0,0.,24.0,0.,24.0
1979-07-21 05:20:58.020 ,2,1,1.,24.0,0.,24.0,0.,24.0,0.,24.0
1979-07-21 05:21:22.020 ,2,0,0.,24.0,0.,24.0,1.,24.0,0.,24.0
1979-07-21 05:21:46.020 ,1,1,0.,24.0,0.,24.0,0.,24.0,0.,24.0
1979-07-21 05:22:10.020 ,1,0,0.,24.0,0.,24.0,0.,24.0,0.,24.0
1979-07-21 05:22:34.020 ,0,1,0.,24.0,0.,24.0,1.,24.0,0.,24.0
1979-07-21 05:22:58.020 ,0,0,0.,24.0,0.,24.0,0.,24.0,0.,24.0
1979-07-21 05:23:22.020 ,0,1,0.,24.0,0.,24.0,1.,24.0,0.,24.0
1979-07-21 05:23:46.020 ,0,0,1.,24.0,0.,24.0,0.,24.0,0.,24.0
1979-07-21 05:24:10.020 ,1,1,0.,24.0,0.,24.0,0.,24.0,0.,24.0
1979-07-21 05:24:34.020 ,1,0,0.,24.0,0.,24.0,1.,24.0,0.,24.0
1979-07-21 05:24:58.020 ,2,1,0.,24.0,0.,24.0,0.,24.0,0.,24.0
1979-07-21 05:25:22.020 ,2,0,0.,24.0,0.,24.0,1.,24.0,0.,24.0
1979-07-21 05:25:46.020 ,3,1,1.,24.0,0.,24.0,0.,24.0,0.,24.0
1979-07-21 05:26:10.020 ,3,0,0.,24.0,2.,24.0,1.,24.0,0.,24.0
1979-07-21 05:26:34.020 ,4,1,0.,24.0,0.,24.0,0.,24.0,0.,24.0
1979-07-21 05:26:58.020 ,4,0,0.,24.0,0.,24.0,0.,24.0,0.,24.0
1979-07-21 05:27:22.020 ,5,1,0.,24.0,1.,24.0,1.,24.0,0.,24.0
1979-07-21 05:27:46.020 ,5,0,0.,24.0,1.,24.0,0.,24.0,0.,24.0
1979-07-21 05:28:10.020 ,6,1,0.,24.0,0.,24.0,1.,24.0,0.,24.0
1979-07-21 05:28:34.020 ,6,0,0.,24.0,0.,24.0,0.,24.0,0.,24.0
1979-07-21 05:28:58.020 ,7,1,7.,24.0,0.,24.0,0.,24.0,0.,24.0
1979-07-21 05:29:22.020 ,7,0,28.,24.0,0.,24.0,1.,24.0,0.,24.0
1979-07-21 05:29:46.020 ,7,1,27.,24.0,0.,24.0,1.,24.0,0.,24.0
1979-07-21 05:30:10.020 ,7,0,41.,24.0,0.,24.0,0.,24.0,0.,24.0
1979-07-21 05:30:34.020 ,6,1,26.,24.0,0.,24.0,0.,24.0,0.,24.0
1979-07-21 05:30:58.020 ,6,0,1.,24.0,0.,24.0,0.,24.0,0.,24.0
1979-07-21 05:31:22.020 ,5,1,1.,24.0,0.,24.0,0.,24.0,0.,24.0
1979-07-21 05:31:46.020 ,5,0,0.,24.0,0.,24.0,0.,24.0,0.,24.0
1979-07-21 05:32:10.020 ,4,1,1.,24.0,1.,24.0,0.,24.0,0.,24.0
1979-07-21 05:32:34.020 ,4,0,1.,24.0,0.,24.0,0.,24.0,0.,24.0
1979-07-21 05:32:58.020 ,3,1,0.,24.0,0.,24.0,0.,24.0,0.,24.0
1979-07-21 05:33:22.020 ,3,0,0.,24.0,0.,24.0,0.,24.0,0.,24.0
1979-07-21 05:33:46.020 ,2,1,2.,24.0,0.,24.0,0.,24.0,0.,24.0
1979-07-21 05:34:10.020 ,2,0,0.,24.0,0.,24.0,0.,24.0,0.,24.0